Location: Newark
(45.0333°N, 18.2865°E)
Time: 04:03:24
(UTC+00:00)

ISS - Visible Passes

Search period start: 18 September 2021 00:00
Search period end: 28 September 2021 00:00
Orbit: 419 x 423 km, 51.6° (Epoch: 17 September)

Date Brightness Start Highest point End Pass type
(mag) Time Alt. Az. Time Alt. Az. Time Alt. Az.
18 Sep -3.1 18:53:10 10° WSW 18:56:29 54° NNW 18:56:29 54° NNW visible
19 Sep -3.7 18:06:11 10° WSW 18:09:33 77° NNW 18:11:43 20° ENE visible
19 Sep -0.7 19:43:47 10° WNW 19:44:44 16° WNW 19:44:44 16° WNW visible
20 Sep -3.8 17:19:19 10° SW 17:22:40 70° SSE 17:26:02 10° ENE visible
20 Sep -2.2 18:56:39 10° W 18:59:44 32° NNW 18:59:50 32° N visible
21 Sep -2.5 18:09:31 10° W 18:12:43 39° NNW 18:14:51 18° NE visible
21 Sep -0.4 19:47:15 10° WNW 19:47:51 13° NW 19:47:51 13° NW visible
22 Sep -3.0 17:22:26 10° WSW 17:25:43 52° NNW 17:29:02 10° NE visible
22 Sep -1.8 19:00:11 10° WNW 19:02:47 25° NNW 19:02:47 25° NNW visible
23 Sep -2.0 18:13:03 10° WNW 18:16:00 27° N 18:17:39 19° NE visible
23 Sep -0.2 19:50:27 10° NW 19:50:39 11° NW 19:50:39 11° NW visible
24 Sep -2.2 17:25:53 10° WNW 17:28:57 31° NNW 17:32:01 10° NE visible
24 Sep -1.5 19:03:29 10° NW 19:05:29 23° NNW 19:05:29 23° NNW visible
25 Sep -2.1 18:16:28 10° WNW 18:19:21 25° N 18:20:19 22° NNE visible
26 Sep -2.0 17:29:22 10° WNW 17:32:16 26° N 17:35:07 10° NE visible
26 Sep -1.4 19:06:32 10° NW 19:08:06 22° NW 19:08:06 22° NW visible
27 Sep -2.5 18:19:36 10° NW 18:22:39 30° NNE 18:22:55 30° NNE visible
